sat.trackr.live / text

‹ back to catalog

2025-180A

NORAD 65259 · 2025-180A

PAYLOAD ACTIVE UNKNOWN

§ Identity

Operator
Country
TBD
Launch date
2025-08-19
Launch site
JSC
Launch vehicle
Mass (kg)
RCS (m²)

External: N2YO · Heavens-Above · Gunter

§ Orbital elements

Epoch: 2026-05-19T17:54:14.277312Z

Period
94.60 min
Inclination
97.5163°
Eccentricity
0.0013141
Mean motion
15.22188793 rev/d
Perigee alt
490.2 km
Apogee alt
508.3 km
Semi-major
6,877.4 km
B*
4.4106e-4
RAAN
268.5846°
Arg perigee
61.5305°
Mean anomaly
298.7253°
Rev number
4,146

§ Raw data

2025-180A1 65259U 25180A   26139.74599858  .00010084  00000+0  44106-3 0  99992 65259  97.5163 268.5846 0013141  61.5305 298.7253 15.22188793 41466

JSON: /api/v1/satellites/65259 · /tle

For live sub-satellite position, see the globe view (requires WebGL).

§ Visibility from observer

Set your observer location to see the next 7 days of passes ≥ 10°. The values pass through the URL so the page stays shareable.

No JS? Fill the form by hand. The geolocation button needs JavaScript.

§ Radio — SatNOGS DB

ModeDescriptionDownlinkUplink
FM Telemetry 400.750 MHz

1 transmitter · refreshed weekly from db.satnogs.org